Simultaneous Nadir Overpasses (SNOs) Predictions

Prediction of SNOs between NOAA-19 and TERRA Satellite Orbit:

Table of predicted SNOs for the next 14.0 days since TLE Epoch: 6/30/2013
Index Date (NOAA-19) Time (NOAA-19) Lat,Lon (NOAA-19) SZA (NOAA-19 ) Date (TERRA) Time (TERRA) Lat,Lon (TERRA) SZA (TERRA ) Distance(km) Time Diff (sec)
1 07/01/2013 17:39:12 -69.62, 95.15 133.55 07/01/2013 17:40:24 -69.60, 95.11 133.57 2.36 72
2 07/01/2013 18:30:10 69.51, -97.44 46.35 07/01/2013 18:29:51 69.49, -97.39 46.33 3.32 19
3 07/03/2013 22:23:31 -69.64, 24.05 133.35 07/03/2013 22:24:40 -69.61, 24.06 133.39 3.38 69
4 07/03/2013 23:14:28 69.51,-168.50 46.52 07/03/2013 23:14:07 69.50,-168.45 46.51 2.35 21
5 07/06/2013 03:07:49 -69.61, -46.97 133.17 07/06/2013 03:08:56 -69.61, -47.01 133.18 1.85 67
6 07/06/2013 03:58:46 69.50, 120.45 46.72 07/06/2013 03:58:23 69.49, 120.48 46.71 1.63 23
7 07/08/2013 07:52:08 -69.64,-118.07 132.91 07/08/2013 07:53:11 -69.65,-118.02 132.90 2.37 63
8 07/08/2013 08:43:04 69.49, 49.40 46.96 07/08/2013 08:42:39 69.48, 49.39 46.94 2.11 25
9 07/10/2013 12:36:26 -69.61, 170.91 132.66 07/10/2013 12:37:27 -69.63, 170.88 132.65 2.04 61
10 07/10/2013 13:27:22 69.49, -21.65 47.22 07/10/2013 13:26:54 69.51, -21.64 47.24 2.31 28
11 07/12/2013 17:20:45 -69.64, 99.80 132.33 07/12/2013 17:21:42 -69.65, 99.85 132.33 2.17 57
12 07/12/2013 18:11:40 69.48, -92.70 47.51 07/12/2013 18:11:10 69.47, -92.75 47.50 2.06 30
